North Platte, NE

9:02 AM CST on February 26, 2017 (GMT -0600)
North Platte Regional-Bird

Weather History for KLBF - February, 2014

Change the Weather History Date:

Wednesday, February 12, 2014

  Actual Average Record
Temperature  
Mean Temperature 24 °F 28 °F  
Max Temperature 35 °F 42 °F 76 °F (1962)
Min Temperature 12 °F 14 °F -35 °F (1899)
Degree Days  
Heating Degree Days 41 37  
Month to date heating degree days 660 456  
Since 1 July heating degree days 4608 4476  
Cooling Degree Days 0 0  
Month to date cooling degree days 0 0  
Year to date cooling degree days 0 0  
Moisture  
Dew Point 21 °F    
Average Humidity 79    
Maximum Humidity 91    
Minimum Humidity 66    
Precipitation  
Precipitation 0.00 in 0.02 in 0.59 in (1978)
Month to date precipitation 0.34 0.16  
Year to date precipitation 0.66 0.50  
Snow  
Snow 0.00 in 0.20 in 6.00 in (1950)
Month to date snowfall 5.9 2.2  
Since 1 July snowfall 16.7 17.8  
Snow Depth 3.00 in    
Sea Level Pressure  
Sea Level Pressure 30.06 in    
Wind  
Wind Speed 8 mph (West)    
Max Wind Speed 24 mph    
Max Gust Speed 31 mph    
Visibility 10 miles    
Events      
T = Trace of Precipitation, MM = Missing Value Source: NWS Daily Summary

Daily Weather History Graph

Daily Weather History Graph

Search for Another Location

Airport or City:

Trip Planner

Search our weather history database for the weather conditions in past years. The results will help you decide how hot, cold, wet, or windy it might be!

Date:

Astronomy

Feb. 12, 2014 Rise Set
Actual Time 7:41 AM CST 6:13 PM CST
Civil Twilight 7:12 AM CST 6:41 PM CST
Nautical Twilight 6:40 AM CST 7:14 PM CST
Astronomical Twilight 6:08 AM CST 7:46 PM CST
Moon 4:28 PM CST (2/12) 5:59 AM CST (2/12)
Length of Visible Light 11h 29m
Length of Day
10h 32m
Waxing Gibbous, 95% of the Moon is Illuminated
Feb 12
Waxing Gibbous
Feb 14
Full
Feb 22
Last Quarter
Mar 1
New
Mar 8
First Quarter

Hourly Weather History & Observations

Time (CST) Temp. Windchill Dew Point Humidity Pressure Visibility Wind Dir Wind Speed Gust Speed Precip Events Conditions
12:53 AM 17.1 °F 7.6 °F 14.0 °F 88% 30.08 in 4.0 mi WNW 6.9 mph - N/A   Scattered Clouds
1:53 AM 19.0 °F 8.2 °F 15.1 °F 85% 30.11 in 5.0 mi West 9.2 mph - N/A   Clear
2:53 AM 26.1 °F 14.5 °F 21.0 °F 81% 30.13 in 10.0 mi NNW 13.8 mph 26.5 mph N/A   Mostly Cloudy
3:12 AM 33.8 °F 22.5 °F 26.6 °F 75% 30.04 in 10.0 mi NW 19.6 mph 27.6 mph N/A   Mostly Cloudy
3:53 AM 30.9 °F 19.4 °F 23.0 °F 72% 30.13 in 10.0 mi NNW 17.3 mph 31.1 mph N/A   Scattered Clouds
4:53 AM 27.0 °F 16.1 °F 21.0 °F 78% 30.17 in 10.0 mi NNW 12.7 mph - N/A   Clear
5:53 AM 21.9 °F 11.0 °F 17.1 °F 82% 30.21 in 10.0 mi NW 10.4 mph - N/A   Clear
6:45 AM 15.8 °F 7.2 °F 12.2 °F 86% 30.12 in 10.0 mi NW 5.8 mph - N/A   Mostly Cloudy
6:53 AM 17.1 °F 7.6 °F 14.0 °F 88% 30.23 in 10.0 mi WNW 6.9 mph - N/A   Mostly Cloudy
7:49 AM 24.8 °F 12.9 °F 19.4 °F 80% 30.13 in 10.0 mi NNW 13.8 mph - N/A   Overcast
7:53 AM 24.1 °F 11.5 °F 19.9 °F 84% 30.23 in 10.0 mi NW 15.0 mph - N/A   Overcast
8:53 AM 26.1 °F 16.8 °F 19.9 °F 78% 30.20 in 10.0 mi NNW 9.2 mph - N/A   Overcast
9:53 AM 26.1 °F 18.4 °F 19.9 °F 78% 30.22 in 10.0 mi WNW 6.9 mph - N/A   Overcast
10:28 AM 26.6 °F 21.2 °F 19.4 °F 74% 30.11 in 10.0 mi West 4.6 mph - N/A   Scattered Clouds
10:53 AM 28.0 °F 24.2 °F 21.0 °F 75% 30.20 in 10.0 mi West 3.5 mph - N/A   Clear
11:53 AM 28.9 °F - 21.9 °F 75% 30.18 in 10.0 mi Calm Calm - N/A   Clear
12:53 PM 30.0 °F 23.2 °F 23.0 °F 75% 30.12 in 10.0 mi SW 6.9 mph - N/A   Clear
1:53 PM 30.9 °F 24.3 °F 23.0 °F 72% 30.08 in 10.0 mi SSW 6.9 mph - N/A   Clear
2:53 PM 32.0 °F 23.6 °F 23.0 °F 69% 30.03 in 10.0 mi SW 10.4 mph - N/A   Clear
3:53 PM 32.0 °F 23.0 °F 23.0 °F 69% 29.97 in 10.0 mi SSW 11.5 mph - N/A   Clear
4:53 PM 33.1 °F 26.1 °F 24.1 °F 70% 29.95 in 10.0 mi South 8.1 mph - N/A   Clear
5:53 PM 32.0 °F 24.2 °F 24.1 °F 73% 29.94 in 10.0 mi South 9.2 mph - N/A   Overcast
6:53 PM 32.0 °F 24.8 °F 24.1 °F 73% 29.93 in 10.0 mi South 8.1 mph - N/A   Overcast
7:53 PM 33.1 °F - 25.0 °F 72% 29.88 in 10.0 mi Calm Calm - N/A   Overcast
8:53 PM 34.0 °F - 25.0 °F 70% 29.86 in 10.0 mi Calm Calm - N/A   Overcast
9:53 PM 34.0 °F 29.8 °F 25.0 °F 70% 29.83 in 10.0 mi SW 4.6 mph - N/A   Clear
10:53 PM 34.0 °F 26.0 °F 24.1 °F 67% 29.82 in 10.0 mi WSW 10.4 mph - N/A   Clear
11:53 PM 32.0 °F 24.8 °F 23.0 °F 69% 29.81 in 10.0 mi WSW 8.1 mph - N/A   Clear